Regional Weather Roundup
Issued by NWS Burlington, VT

Home | Current Version | Previous Version | Text Only | Print | Product List | Glossary On
Versions: 1 2 3 4 5 6 7 8 9 10 11 12 13 14 15 16 17 18 19 20 21 22 23 24 25 26 27 28 29 30 31 32 33 34 35 36 37 38 39 40 41 42 43 44 45 46 47 48 49 50
000
ASUS41 KBTV 190910
RWRBTV
VERMONT REGIONAL WEATHER ROUNDUP
NATIONAL WEATHER SERVICE BURLINGTON VT
400 AM EST FRI DEC 19 2014

NOTE: "FAIR" INDICATES FEW OR NO CLOUDS BELOW 12,000 FEET WITH NO
SIGNIFICANT WEATHER AND/OR OBSTRUCTIONS TO VISIBILITY.

* THESE REPORTS ARE NOT UNDER NWS QUALITY CONTROL AND/OR DO NOT
  REPORT WEATHER SUCH AS PRECIPITATION AND FOG.

VTZ001>019-191000-
_____VERMONT_____


CITY           SKY/WX    TMP DP  RH WIND       PRES   REMARKS
BURLINGTON     FLURRIES  28  21  75 N9        29.96R
MONTPELIER     CLOUDY    24  21  88 NW8       29.92R
MORRISVILLE    CLOUDY    26  22  84 NW7       29.92S FOG
ST. JOHNSBURY*   N/A     29  22  75 MISG      29.87S
LYNDONVILLE*   MIX PCPN  26  21  83 W8        29.87R
MIDDLEBURY*    CLOUDY    28  22  77 N6        29.93S
RUTLAND*       CLOUDY    27  21  80 NW12      29.90S WCI  16
SPRINGFIELD    CLOUDY    30  22  72 NW7       29.90S
HIGHGATE*      CLOUDY    26  23  89 CALM      29.96R
NEWPORT*       LGT SNOW  24  22  91 NW7       29.89S
BENNINGTON     CLOUDY    29  22  75 W7        29.91R
SUTTON*          N/A     23 N/A N/A MISG        N/A

_____LAKE CHAMPLAIN_____


CITY           SKY/WX    TMP DP  RH WIND       PRES   REMARKS
COLCHESTER RF*   N/A     32  25  74 N20         N/A

$$

NYZ007-026>031-035-052-083-191000-
_____NORTHERN NEW YORK_____


CITY           SKY/WX    TMP DP  RH WIND       PRES   REMARKS
PLATTSBURGH    CLOUDY    27  21  78 NW10      29.97R WCI  17
SARANAC LAKE   CLOUDY    20 N/A N/A W6        29.88F
MASSENA        CLOUDY    24  17  74 W10       30.03S WCI  14
OGDENSBURG*    CLOUDY    25  21  86 NW5       30.04S
POTSDAM*       CLOUDY    23  21  93 NW7       30.02S
WATERTOWN      CLOUDY    26  20  77 NW10      30.06R HAZE    WCI  16
FT DRUM        FRZ DRZL  22  20  90 NW5       30.02S FOG
ALBANY         CLOUDY    32  21  64 NW12      29.96S
GLENS FALLS    CLOUDY    30  21  69 NE3       29.94S

$$
NHZ002-005-011-191000-
_____NEW HAMPSHIRE_____


CITY           SKY/WX    TMP DP  RH WIND       PRES   REMARKS
LEBANON        CLOUDY    30  22  72 NW7       29.89S
KEENE          CLOUDY    32  21  64 NW5       29.88S
MT WASHINGTON  FOG        9   9 100 NW25G35     N/A  VSB 1/16WCI -13
PLYMOUTH       CLOUDY    30  27  88 NW12G18   29.86S
WHITEFIELD     CLOUDY    27  23  85 W5        29.85S

$$

_____REGIONAL QUEBEC LOCATIONS_____


CITY           SKY/WX    TMP DP  RH WIND       PRES   REMARKS
MONTREAL       PTSUNNY   27  19  74 W9        29.98R
QUEBEC CITY    MOSUNNY   23  16  74 NW6       29.86S
SHERBROOKE     CLOUDY    23  19  86 W10       29.88R WCI  12

_____REGIONAL ONTARIO LOCATIONS_____


CITY           SKY/WX    TMP DP  RH WIND       PRES   REMARKS
OTTAWA         CLOUDY    21  16  79 NW14      30.03S WCI   8

______KEY______
VSB  - VISIBILITY IN MILES
WCI  - WIND CHILL INDEX
HX   - HEAT INDEX
$$
NNNN


USA.gov is the U.S. government's official web portal to all federal, state and local government web resources and services.